GFSSW_prec_cthk_132.txt.gz
RH
15 14 13 12 11 10 8 8 7 7 6 6 5 5 5 4 4 4 4 4 5 6 7 8 15 20 27 35 39 37 36 34 28 28 23 28 32 31 29 29 29 30 28 27 30
16 14 13 12 11 10 9 9 8 7 7 6 6 6 5 5 5 4 4 4 4 5 8 13 15 23 33 35 32 30 29 22 21 23 23 27 28 26 28 30 31 30 30 28 30
16 14 14 12 11 10 10 10 9 8 7 7 7 7 6 5 5 6 4 4 4 5 6 12 17 26 27 23 23 23 21 18 16 20 17 23 26 25 28 28 27 31 31 30 29
16 14 13 12 11 11 11 10 9 8 8 7 7 8 8 8 8 7 6 4 5 5 6 10 18 23 22 20 19 18 18 18 18 17 16 21 24 27 28 27 25 30 34 31 35
16 14 13 12 11 11 11 10 9 8 8 7 7 8 9 8 8 6 6 5 5 6 7 10 19 21 19 19 19 20 18 17 16 14 18 20 22 24 27 28 29 31 36 37 35
16 14 13 12 11 11 10 10 9 8 8 7 7 7 8 12 10 8 6 5 6 6 7 13 19 19 19 20 20 19 19 18 16 15 17 19 21 24 30 31 34 35 38 44 44
16 15 13 12 11 11 10 10 10 9 9 7 7 8 8 10 10 8 7 6 6 6 6 15 19 20 19 20 21 20 21 18 17 17 17 20 24 26 30 34 40 39 35 40 46
15 14 13 11 11 11 10 11 11 10 10 7 8 7 10 11 9 8 8 7 6 6 10 13 15 17 18 19 21 20 19 17 18 17 19 21 26 30 31 35 41 36 33 32 33
15 14 13 11 11 11 11 11 11 10 10 8 8 9 11 10 9 8 8 8 7 8 11 12 13 14 17 21 23 21 19 20 20 19 20 22 27 30 32 37 40 37 37 38 33
14 14 12 11 11 11 12 12 13 12 11 9 8 12 13 10 10 11 11 11 11 12 12 12 12 13 17 22 22 21 21 23 23 21 20 24 28 31 33 33 39 37 38 41 36
13 13 12 10 10 11 13 12 12 12 12 10 7 12 14 12 11 12 12 12 13 13 13 13 15 18 20 22 21 24 24 23 21 21 22 26 27 32 34 34 36 36 38 39 42
12 12 12 10 10 12 14 13 13 12 12 10 9 11 12 12 11 12 13 12 13 14 14 16 18 17 20 21 22 24 22 20 20 22 22 30 32 37 39 37 36 36 36 37 41
12 12 11 10 10 13 14 14 13 13 12 10 9 11 11 11 11 11 12 13 13 15 15 17 15 16 17 19 20 20 22 20 20 22 25 30 35 39 41 39 38 39 38 39 38
11 10 11 9 10 14 15 15 14 14 15 10 10 11 11 12 12 11 12 13 13 14 15 16 15 17 18 18 18 18 19 20 21 23 27 28 42 35 40 40 38 40 38 39 40
10 10 10 9 9 12 16 17 16 15 17 10 10 11 12 12 11 11 12 13 14 14 13 14 15 17 18 18 19 19 19 20 22 24 25 25 27 27 37 41 37 39 40 40 42
9 10 9 9 9 10 16 18 17 18 18 15 10 10 11 12 11 11 12 13 14 14 14 14 14 16 17 19 19 19 19 21 23 22 23 22 25 25 33 31 38 42 44 42 42
9 9 9 9 8 10 15 20 21 22 14 18 14 12 12 13 13 12 12 13 14 14 14 14 15 16 16 18 19 19 20 25 22 28 25 22 25 22 20 31 36 39 42 42 41
9 9 9 8 8 10 14 22 23 15 18 17 16 16 16 15 14 13 12 14 13 13 15 16 16 15 15 17 21 23 22 27 25 28 23 22 26 24 25 29 33 40 43 41 42
9 9 9 7 8 9 15 24 19 18 17 17 18 17 16 15 14 14 14 13 13 12 13 15 16 16 17 18 21 24 25 24 28 27 25 22 22 22 27 29 33 38 45 46 43
10 9 9 9 8 8 17 20 19 19 17 18 20 18 18 17 15 14 15 14 13 13 14 17 19 18 19 19 21 21 24 24 26 25 24 23 24 27 27 32 34 37 43 44 42
11 9 14 10 9 10 16 17 16 18 18 19 21 20 18 17 16 16 16 15 16 16 16 18 20 21 21 20 21 23 24 27 27 28 29 30 25 22 23 27 31 35 39 40 43
11 11 16 15 15 17 16 15 14 15 17 20 22 22 20 18 18 18 17 16 17 17 18 19 21 23 23 24 24 23 23 26 32 31 34 30 24 21 23 25 28 34 37 38 41
16 12 18 19 19 18 15 14 14 13 14 16 21 22 21 19 18 19 20 19 18 19 19 20 22 25 25 26 25 26 27 29 31 32 34 33 29 23 23 26 28 33 37 39 40
22 22 23 20 21 20 18 17 16 14 14 14 18 21 24 22 21 20 22 22 22 23 21 21 25 22 22 24 25 24 25 29 31 35 35 32 27 25 29 31 32 33 36 37 39
29 33 32 30 26 25 23 21 21 18 17 16 17 19 22 25 25 23 23 24 25 26 26 26 27 26 26 25 25 26 26 27 27 29 31 29 29 25 28 34 38 39 40 41 42
33 34 33 35 32 28 25 24 22 21 19 19 18 20 19 21 25 27 26 26 26 27 28 28 29 28 31 32 32 32 30 29 29 30 29 28 26 26 27 33 35 38 39 41 44
37 34 36 36 38 32 31 26 25 23 23 23 23 23 24 23 22 22 25 26 27 27 27 27 33 34 35 36 35 36 31 32 31 27 25 25 21 21 22 24 27 34 37 41 45

GFSSW_prec_cthk_138.txt.gz
RH
15 14 13 12 11 10 9 9 8 7 6 6 6 5 5 5 5 5 7 8 8 9 9 14 17 29 33 40 36 32 33 29 22 24 28 32 30 27 30 32 33 31 27 29 33
15 14 13 12 12 11 10 9 9 8 7 6 6 5 5 5 5 4 4 5 5 6 8 15 22 26 36 35 35 31 28 24 16 18 22 28 32 28 31 33 31 30 30 32 32
16 14 13 12 11 11 10 9 9 8 7 6 6 6 6 6 5 6 4 4 4 5 7 11 19 25 34 32 32 31 27 20 16 15 21 26 30 34 39 38 33 31 33 35 37
16 15 13 12 11 11 10 9 9 8 7 7 7 6 6 6 10 8 6 4 4 5 7 11 16 26 28 29 28 29 19 15 15 15 18 28 29 33 35 33 34 33 35 37 38
16 15 13 12 11 11 10 10 9 9 8 8 7 7 7 9 8 7 5 4 4 6 8 11 17 26 26 26 22 20 17 16 15 16 19 26 30 31 34 37 32 35 35 36 39
15 15 14 12 10 10 10 10 10 10 8 7 7 8 9 10 9 7 6 4 5 7 9 12 18 24 24 24 22 18 16 17 13 16 21 30 31 33 36 37 36 34 34 35 38
14 14 13 12 10 10 10 10 11 10 8 7 7 8 9 11 10 6 5 5 6 7 8 12 17 22 22 22 21 18 20 16 15 19 23 28 31 37 36 35 34 37 34 34 39
14 13 13 12 11 9 10 11 11 10 9 8 7 8 9 10 10 7 6 6 6 6 8 12 16 20 20 20 18 18 18 22 17 19 21 30 34 35 39 38 35 37 39 37 38
14 13 12 12 11 9 10 11 12 12 10 8 8 9 11 12 10 8 7 7 6 7 8 12 15 18 19 19 17 17 21 20 18 18 20 26 31 34 38 40 38 38 41 40 38
13 13 12 11 11 9 9 12 12 13 12 10 8 10 12 12 10 8 8 7 7 8 9 11 13 17 18 18 21 21 20 20 21 19 20 22 27 31 36 39 40 36 41 41 40
12 12 12 11 11 10 9 13 13 14 14 12 9 11 13 11 9 8 7 8 7 9 11 11 12 14 16 17 20 18 18 20 20 20 21 22 24 29 34 38 42 37 37 41 44
12 12 12 11 10 9 10 14 14 13 13 13 11 10 14 12 11 9 9 10 10 11 12 12 11 12 13 15 19 19 20 22 22 20 20 22 25 28 33 35 41 41 39 42 42
12 11 11 11 10 9 11 13 14 14 13 12 12 9 13 12 11 11 11 12 11 13 12 12 13 13 13 17 18 20 23 22 23 21 21 23 25 28 31 34 37 41 38 39 42
12 11 11 10 11 10 12 15 15 15 13 11 10 11 11 13 13 12 11 12 12 13 13 14 13 13 14 16 17 24 20 21 22 23 24 23 23 27 27 31 31 35 38 36 38
12 11 10 11 10 10 13 16 16 15 14 11 10 11 11 12 12 12 12 13 14 14 13 14 13 14 16 17 17 24 19 20 20 20 22 24 23 30 26 26 27 33 38 36 34
12 11 10 11 10 10 13 17 19 17 15 11 10 10 11 12 11 12 12 14 15 14 14 15 12 14 17 17 16 17 19 18 18 21 23 23 25 22 25 22 26 33 37 38 40
13 11 11 10 11 10 12 20 21 20 13 12 10 10 10 11 11 11 12 13 13 15 14 14 13 14 16 16 17 17 20 24 25 23 21 25 17 16 20 18 18 22 37 41 44
14 12 11 10 10 11 12 23 24 17 13 14 12 11 11 12 11 12 13 14 14 13 16 16 16 14 15 18 19 17 22 22 28 23 24 25 19 23 17 16 19 21 27 40 42
13 13 11 11 11 11 13 23 20 17 15 15 15 13 14 15 14 12 12 12 12 12 16 17 18 16 15 17 18 20 19 23 27 24 20 23 21 17 16 19 20 24 28 36 41
14 13 14 11 11 11 14 17 21 18 16 14 17 15 14 15 14 14 13 12 14 13 14 16 19 16 16 16 17 19 23 21 22 29 28 25 22 20 18 20 22 27 31 39 42
19 15 16 14 12 13 12 13 18 18 17 17 18 21 18 15 14 14 14 13 13 13 14 15 15 20 16 16 18 18 18 19 25 26 24 26 25 20 18 17 18 20 25 33 39
26 21 16 19 14 11 11 13 16 16 17 18 17 21 19 19 16 15 15 15 12 13 14 15 15 22 16 18 17 20 21 22 25 31 23 24 23 22 20 20 20 21 20 24 31
34 26 22 20 18 13 13 13 17 15 16 17 18 20 22 21 21 19 18 18 15 15 15 16 16 20 23 19 19 19 20 22 26 29 28 27 26 28 23 23 22 23 24 25 31
36 37 31 24 22 21 14 15 14 15 15 15 17 20 24 24 24 23 21 20 18 18 18 18 17 19 21 21 22 23 22 22 24 27 27 29 25 30 26 24 25 23 24 28 31
33 41 45 32 25 24 23 18 16 15 16 16 15 18 22 27 26 25 24 24 21 22 21 21 23 22 20 23 22 24 21 21 22 22 26 27 28 29 26 24 24 22 23 27 32
32 37 43 42 35 33 27 22 21 17 20 17 16 16 19 26 29 29 28 26 24 24 24 23 27 26 23 21 19 20 20 24 23 22 23 25 25 27 26 25 22 19 18 22 27
32 32 38 43 39 35 29 26 24 25 23 22 22 22 20 24 27 29 30 31 31 27 27 26 29 29 28 27 26 26 23 23 24 24 25 28 28 30 27 24 21 20 22 23 24

GFSSW_prec_cthk_141.txt.gz
RH
14 13 13 12 11 10 9 9 8 8 7 6 5 5 5 6 6 7 8 9 9 9 10 14 22 33 36 34 29 34 27 21 24 31 39 40 31 31 32 33 34 28 30 34 40
15 14 13 12 11 10 10 9 8 8 7 6 6 5 5 5 4 5 6 6 7 8 10 16 24 29 35 35 32 35 24 22 21 27 36 38 35 42 34 28 29 30 29 32 36
15 14 13 12 11 10 10 9 9 8 7 7 6 5 5 5 5 6 5 4 5 6 12 17 25 30 36 34 30 30 24 21 17 22 34 38 44 49 51 40 30 31 34 36 38
15 14 13 12 11 10 10 10 9 9 7 7 7 6 6 5 15 12 5 4 4 5 10 14 22 28 33 30 31 27 20 20 17 19 34 38 41 42 41 46 33 34 35 38 39
15 14 13 12 11 10 10 10 9 9 8 8 7 7 6 7 12 6 5 4 4 6 8 13 20 28 31 27 25 24 21 20 17 17 35 31 39 38 36 29 32 34 36 40 45
14 14 13 12 11 9 9 10 10 10 9 8 7 7 8 12 11 6 5 4 5 7 8 13 19 27 29 28 28 19 18 17 18 19 26 38 33 33 33 34 31 31 34 42 44
13 13 13 12 11 10 9 10 10 11 10 8 7 8 12 14 10 6 5 5 6 7 9 11 19 24 22 22 19 18 23 17 18 24 28 36 41 42 32 34 32 33 34 39 42
12 12 12 12 11 10 9 10 11 11 9 8 7 8 13 10 9 6 5 5 6 8 9 13 19 22 24 22 18 21 23 17 17 25 23 40 48 40 32 37 36 36 34 34 38
12 11 11 12 11 10 8 9 11 12 10 9 8 10 12 9 9 6 6 6 6 7 9 13 15 20 20 22 24 20 19 21 19 23 22 37 48 40 36 41 40 38 37 33 36
12 11 11 11 11 10 9 9 12 12 12 10 9 13 12 11 11 7 7 7 7 7 9 10 13 18 20 26 21 18 20 18 18 19 22 26 43 38 39 47 41 42 38 38 34
12 11 10 10 11 11 9 11 15 16 14 12 11 10 14 13 11 8 8 7 7 8 9 10 12 15 23 23 21 20 17 17 19 19 21 23 35 38 39 52 44 43 37 37 40
13 11 10 10 11 11 10 14 16 16 14 13 13 9 14 12 10 9 8 7 7 8 10 12 12 14 20 21 20 22 19 19 19 20 20 21 21 41 36 48 49 41 40 42 45
13 12 10 10 10 11 13 12 13 13 12 12 12 11 11 12 11 9 8 9 8 9 11 14 13 13 13 13 14 20 21 22 21 20 20 21 22 28 36 36 52 49 43 45 44
13 13 11 9 10 13 12 14 14 14 13 11 12 11 11 13 12 10 9 11 11 12 13 13 16 14 12 14 17 21 21 23 21 22 21 20 22 26 34 38 34 50 50 45 48
13 13 12 10 10 11 14 15 15 16 16 10 11 10 10 12 12 12 10 12 14 13 14 13 16 13 13 17 19 22 23 20 21 22 22 26 22 22 32 38 38 38 50 53 49
14 13 12 12 11 10 12 16 18 18 15 15 14 10 11 12 14 14 12 12 13 14 14 19 17 13 14 17 18 24 22 20 21 19 19 20 22 19 28 30 30 38 45 49 46
13 13 12 11 13 13 13 18 20 20 13 15 13 10 10 12 13 14 13 12 14 16 16 16 14 13 15 21 18 19 20 24 23 20 19 20 22 21 19 25 29 30 39 53 51
14 13 13 11 12 11 13 20 25 18 19 16 15 11 10 12 13 14 14 14 14 13 16 16 16 14 13 16 17 16 20 20 26 21 22 25 24 18 20 20 18 18 20 41 52
17 14 15 13 11 13 14 18 20 19 18 21 18 14 12 14 14 15 13 12 13 13 15 19 19 16 15 15 21 20 21 20 21 22 23 22 25 20 16 15 21 23 20 21 41
21 19 15 17 14 13 15 12 16 20 22 20 20 16 15 13 15 15 15 13 15 12 14 21 21 19 18 17 20 23 23 21 21 24 26 20 23 24 26 24 23 22 23 29 39
30 24 21 18 16 13 13 10 12 23 29 23 19 24 19 18 19 19 15 15 15 15 14 18 21 22 20 16 17 16 20 23 21 22 21 23 22 26 26 21 21 20 24 30 40
31 32 26 21 18 13 12 12 12 15 25 22 21 22 28 21 20 22 21 16 15 15 15 14 19 24 23 19 15 20 20 20 21 26 25 22 24 28 29 24 19 24 22 22 31
26 35 32 27 18 14 13 13 13 15 18 21 18 18 23 28 25 23 21 20 19 15 16 16 17 20 26 24 19 19 23 21 22 25 27 31 27 30 31 29 24 20 24 24 23
27 29 35 33 25 21 19 14 13 13 17 18 19 20 21 24 26 28 22 21 22 15 17 18 18 18 20 26 24 19 18 24 24 27 26 28 27 32 33 31 26 24 23 24 25
29 29 44 45 32 22 23 22 16 16 15 17 18 20 22 26 26 29 28 24 22 18 18 17 19 19 18 22 23 22 24 23 25 26 27 26 25 28 40 41 30 23 23 24 24
35 41 41 48 50 38 27 27 21 17 17 16 16 17 20 26 33 33 30 28 26 22 19 20 23 21 24 22 22 22 23 24 23 24 25 25 25 28 35 37 25 23 24 24 22
46 36 34 31 41 44 38 34 25 25 20 20 22 20 18 20 30 38 34 30 33 28 23 23 22 26 29 28 25 27 24 22 21 22 25 28 28 31 38 30 24 24 26 23 21

GFSSW_prec_cthk_144.txt.gz
RH
15 14 13 12 11 10 9 9 8 7 7 6 6 6 6 6 6 7 8 9 9 10 14 23 24 29 31 35 36 32 29 20 25 38 38 37 32 29 32 39 28 31 33 42 44
15 14 13 12 11 10 10 9 9 8 7 7 6 5 5 5 5 5 6 6 8 8 9 22 28 28 30 33 35 33 28 18 24 38 39 35 42 42 30 28 33 31 31 37 43
15 14 14 13 11 10 10 10 9 8 8 7 6 6 5 5 5 4 5 5 5 7 9 21 26 26 30 37 32 28 22 16 19 33 37 39 50 53 52 40 29 30 33 38 43
14 14 13 13 12 10 9 9 9 9 8 7 6 6 5 5 18 11 6 5 4 6 9 20 24 26 30 32 28 26 18 18 15 32 37 41 44 51 48 42 32 32 34 36 44
13 13 13 13 12 10 9 9 10 9 9 7 7 6 6 6 12 11 7 4 4 6 11 19 23 27 34 27 27 25 17 19 15 35 37 37 37 28 29 30 32 32 35 40 44
12 12 12 12 12 11 9 9 9 10 10 8 7 6 6 12 13 10 4 4 4 5 12 15 20 30 35 26 26 24 21 18 16 29 31 40 33 31 25 28 31 30 36 41 43
12 12 11 12 12 11 9 8 9 11 10 8 7 7 11 14 14 8 5 4 5 6 10 14 15 25 30 27 28 18 21 16 20 23 36 35 53 44 26 28 29 31 34 38 42
12 11 11 11 11 11 9 8 9 11 10 8 7 7 12 11 11 6 6 5 6 7 9 12 13 23 29 30 19 23 24 17 19 25 32 39 68 49 33 28 32 32 33 34 39
13 11 10 10 10 11 10 8 9 11 12 9 7 8 12 10 9 6 6 6 6 8 9 10 15 19 25 25 23 21 21 19 18 22 28 32 43 55 44 35 31 34 34 30 36
12 12 10 9 10 10 10 8 9 11 12 10 10 14 11 11 10 6 6 6 6 8 10 11 14 16 23 27 26 20 19 22 20 19 22 31 37 55 57 47 33 39 34 34 31
12 12 11 9 9 10 10 9 16 20 16 11 12 9 14 11 11 7 7 7 7 7 8 11 11 14 23 26 25 21 17 20 18 18 20 28 34 38 43 48 38 33 34 36 37
11 11 11 10 9 9 10 12 20 19 15 13 13 12 15 14 12 8 7 7 7 7 8 10 10 12 19 24 22 21 18 17 17 19 18 26 35 42 37 45 47 57 42 35 38
12 11 11 10 9 10 12 13 12 13 14 11 11 12 11 15 11 9 8 7 7 8 8 11 10 12 17 20 20 19 19 18 19 19 18 20 22 30 35 35 53 45 55 37 40
12 12 11 11 10 12 12 15 14 14 13 9 9 11 11 13 12 10 8 7 9 8 9 10 18 16 15 16 16 17 18 20 21 20 19 18 20 29 35 39 44 49 49 45 48
11 12 12 12 11 12 12 13 15 15 17 6 8 11 11 10 11 11 9 8 12 9 10 12 13 17 13 12 14 20 20 20 20 21 21 22 20 21 24 31 36 42 44 39 42
13 11 13 12 12 12 12 14 16 19 16 15 12 11 11 10 12 13 10 8 11 14 13 15 14 18 14 12 18 21 22 22 19 20 21 21 25 21 23 30 36 42 43 44 51
17 13 12 12 12 15 14 13 19 21 11 14 17 13 11 10 12 15 12 10 12 15 15 15 18 18 13 15 19 20 23 24 21 20 19 18 18 19 28 30 34 37 40 44 50
23 16 13 12 12 15 15 17 21 16 14 16 20 17 13 11 13 13 16 13 11 12 16 16 17 18 15 15 20 19 21 21 28 26 23 20 20 19 22 24 25 30 31 34 47
22 22 17 14 12 13 17 17 15 13 13 14 20 21 17 13 14 15 16 14 11 12 16 21 16 20 13 13 20 21 19 18 20 20 25 26 26 26 23 21 18 18 18 19 28
18 23 22 17 16 14 16 14 12 11 18 24 23 21 20 16 16 15 17 16 14 12 13 19 21 19 19 15 17 20 20 19 20 24 25 21 24 24 24 23 21 18 22 21 19
20 25 30 22 20 16 14 12 12 11 19 28 27 23 22 19 16 18 18 17 16 15 14 16 21 21 19 18 16 20 22 23 20 20 20 23 29 29 29 28 27 26 24 27 29
23 23 30 33 26 18 14 12 13 13 12 22 31 28 25 22 19 17 17 19 19 16 17 14 21 23 20 20 19 20 20 25 25 25 24 27 34 30 28 27 27 27 21 16 26
32 24 32 36 31 22 16 14 13 13 13 17 28 32 28 27 27 20 17 18 19 19 20 19 19 23 24 21 21 18 20 20 21 23 25 26 26 29 29 26 28 28 25 21 15
37 26 25 28 38 31 22 16 14 12 13 14 21 29 25 29 30 27 19 19 20 19 19 21 20 19 22 24 22 24 19 20 21 23 23 25 33 35 33 32 34 33 31 22 21
39 30 38 46 31 39 29 25 21 16 13 14 19 24 24 27 29 29 27 23 21 21 21 20 25 21 19 21 22 23 23 21 23 24 26 26 27 31 37 38 38 37 36 31 29
36 46 42 47 48 53 49 27 26 23 16 15 19 20 19 24 27 30 31 30 24 22 21 21 25 24 24 21 21 23 23 23 20 21 23 25 27 34 35 37 35 35 33 29 27
51 55 51 40 50 44 45 39 25 30 27 20 20 21 21 24 27 32 33 31 27 25 24 24 22 26 25 24 22 22 22 21 24 24 23 25 25 30 36 38 36 35 31 30 21

GFSSW_prec_cthk_147.txt.gz
RH
14 13 13 12 11 10 9 9 8 7 7 7 6 6 6 6 6 7 7 8 10 20 23 24 26 31 31 33 33 35 36 40 39 37 41 38 29 33 32 32 34 33 31 38 45
14 13 13 13 12 11 9 9 8 8 8 7 6 6 5 5 5 5 5 6 7 15 21 19 24 30 31 30 30 31 24 24 27 34 37 35 38 35 39 32 31 33 37 36 39
14 13 13 13 12 11 10 9 9 8 8 7 6 6 5 4 4 3 4 4 5 10 15 17 28 30 29 30 30 27 21 20 34 31 36 41 49 50 45 40 31 32 39 40 41
13 13 12 12 12 12 10 9 9 8 8 8 6 6 5 5 13 10 6 4 4 6 16 16 29 30 27 30 29 25 19 18 24 39 39 41 36 39 37 35 31 35 38 41 41
13 12 12 12 12 11 11 9 8 9 9 9 7 6 6 6 10 10 7 6 5 5 15 18 29 27 25 30 27 28 21 15 28 40 45 36 38 29 27 29 30 32 37 40 40
13 12 11 11 11 11 10 9 8 9 10 9 7 6 6 8 12 11 9 5 4 5 13 18 25 25 26 28 27 22 20 17 29 40 42 35 35 30 29 26 28 32 34 40 41
13 12 11 10 10 10 10 9 8 9 10 9 7 6 6 8 13 11 6 4 4 6 12 18 21 18 22 29 27 24 21 17 17 37 37 42 39 36 32 28 29 28 33 39 42
12 12 10 10 10 10 10 10 8 9 10 9 7 6 7 10 10 9 5 4 4 6 12 16 19 16 23 28 26 20 21 17 19 26 39 35 42 41 34 33 34 33 32 36 40
11 11 11 10 9 9 10 10 8 9 11 10 8 9 9 10 8 8 5 4 5 7 9 13 14 16 22 26 26 23 25 21 19 21 35 37 39 40 45 40 33 34 32 31 36
10 10 11 10 9 9 9 9 9 8 11 11 10 13 8 10 9 7 5 5 6 7 9 11 12 17 23 26 29 24 25 25 21 21 27 34 34 37 39 40 41 34 33 31 29
10 10 10 11 10 8 9 9 14 22 18 13 10 8 13 13 10 7 5 5 6 7 9 11 14 15 21 25 28 28 27 24 21 21 23 31 36 41 41 40 46 40 30 29 31
10 10 10 10 10 9 9 9 16 15 13 12 11 12 12 15 13 8 6 6 6 7 9 10 12 11 24 26 26 24 23 22 21 19 21 27 29 36 44 44 44 43 39 29 27
11 10 9 10 10 10 11 12 13 14 12 12 10 11 12 13 14 9 6 6 7 7 8 9 9 9 21 20 23 22 21 19 19 19 19 24 31 39 46 51 48 42 39 36 31
13 11 10 9 10 12 14 13 13 16 16 9 9 8 11 15 15 11 7 7 8 7 7 8 9 13 14 15 20 21 20 18 17 20 22 20 27 39 38 43 43 41 42 45 41
18 13 11 10 10 13 14 14 14 15 24 7 5 6 8 10 12 11 9 8 8 7 8 7 10 14 16 16 17 17 18 18 22 23 22 21 22 30 31 40 38 40 42 44 40
20 18 13 11 11 11 13 15 15 19 23 9 10 8 10 10 11 13 10 9 8 9 9 8 9 14 17 17 13 15 19 21 20 22 25 23 24 23 29 33 35 38 41 44 42
18 21 18 12 11 13 14 15 19 23 11 12 12 12 12 11 10 13 12 11 9 11 12 11 13 14 15 16 13 19 23 28 26 24 23 20 23 23 23 29 33 36 41 38 42
19 18 21 17 12 12 13 17 23 14 10 11 18 16 16 13 11 12 14 12 9 9 14 15 15 14 15 14 15 20 23 29 30 28 27 25 22 24 24 26 28 29 35 37 40
21 18 18 22 14 12 16 18 16 13 10 11 22 26 23 17 13 14 16 13 10 8 12 15 15 15 18 17 13 19 20 21 24 26 28 25 27 24 22 24 26 29 32 34 39
21 20 17 23 20 14 18 16 12 12 11 15 25 25 26 22 18 16 16 16 13 12 10 13 21 16 18 19 15 19 22 20 24 26 29 26 29 30 28 25 26 25 24 22 24
21 25 18 24 28 22 16 14 11 12 12 15 24 25 27 27 21 18 16 15 18 15 12 11 19 20 21 19 17 17 23 21 20 24 27 29 32 33 31 29 28 27 28 27 28
24 28 25 27 30 28 20 14 12 12 12 12 21 24 25 25 26 20 18 17 17 19 17 11 19 22 23 22 20 18 17 23 31 27 28 30 32 28 30 31 30 30 28 26 26
29 27 29 29 29 30 30 21 14 12 12 12 16 24 26 26 30 27 22 19 19 21 19 16 19 22 24 24 21 20 19 20 25 27 26 30 32 29 29 29 28 26 27 25 27
28 32 33 35 31 32 34 30 22 15 13 12 19 24 25 27 30 28 26 22 20 19 20 21 17 22 23 25 22 22 21 20 23 27 25 27 29 29 29 30 32 28 27 29 27
31 30 42 41 39 40 39 40 31 23 16 14 15 25 21 25 30 28 26 25 21 18 21 20 23 21 20 22 24 23 22 23 21 21 25 22 26 28 32 36 35 29 31 34 34
34 35 48 50 49 47 43 44 41 32 23 20 15 17 21 21 24 29 26 27 26 23 20 22 25 23 26 21 23 24 25 25 24 21 21 24 25 30 34 40 39 36 36 37 33
48 45 52 51 55 53 44 45 47 41 26 22 22 17 18 18 18 25 27 26 27 29 29 24 25 27 26 23 23 25 25 26 25 25 22 23 27 30 35 36 37 36 36 35 32